Weather observations for the past three days for
Egegik, Egegik Airport
Imperial (Metric)
Date Time (akdt) Wind (mph) Vis. (mi.) Weather Sky Cond. Temperature (ºF) Relative Humidity Wind Chill (°F) Heat Index (°F) Pressure Precipitation (in)
Air Dwpt 6 hour altimeter (in) sea level (mb) 1 hr 3 hr 6 hr
Max. Min.
15 02:56 SW 8 9.00 Overcast SCT003 BKN010 OVC016 46 45 96% 42 29.79 1008.4
15 01:56 SW 10 4.00 Light Rain Fog/Mist BKN005 BKN009 OVC016 46 45 96% 42 29.78 1008.3
15 00:56 SW 9 4.00 Light Rain Fog/Mist OVC005 46 45 96% 42 29.78 1008.1
14 23:56 SW 12 G 16 9.00 Overcast BKN007 OVC011 46 45 96% 41 29.77 1007.7
14 22:56 SW 10 10.00 Overcast BKN009 OVC013 46 45 96% 42 29.75 1007.2
14 21:56 SW 13 G 18 10.00 Overcast OVC011 46.9 44.1 48.9 46.9 90% 42 29.73 1006.6
14 20:56 SW 14 G 20 10.00 Overcast BKN011 OVC017 46.9 44.1 90% 42 29.72 1006.1
14 19:56 SW 10 G 21 10.00 Overcast BKN009 OVC014 46.9 45 93% 43 29.71 1005.8
14 18:56 SW 14 G 21 4.00 Light Rain Fog/Mist BKN008 OVC012 46.9 45 93% 42 29.7 1005.6
14 17:56 SW 14 G 28 6.00 Fog/Mist OVC011 48 45 89% 43 29.69 1005.2
14 16:56 SW 15 G 24 10.00 Overcast BKN011 OVC016 48 45 89% 43 29.68 1004.8
14 15:56 SW 16 G 25 10.00 Overcast BKN010 OVC018 48 46 48 46 93% 42 29.66 1004.2 0.01 0.04
14 14:56 W 16 G 25 4.00 Light Rain Fog/Mist BKN008 BKN011 OVC017 46 45 96% 40 29.65 1003.7 0.01
14 13:56 W 18 G 25 2.50 Light Rain Fog/Mist SCT006 OVC010 46 45 96% 39 29.62 1002.9
14 12:56 SW 17 G 28 10.00 Overcast OVC012 46.9 44.1 90% 41 29.6 1002.0 0.02
14 11:56 SW 17 G 24 10.00 Overcast BKN012 OVC020 46.9 45 93% 41 29.58 1001.3
14 10:56 SW 16 G 23 10.00 Light Rain BKN008 OVC014 48 46 93% 42 29.56 1000.7 0.02
14 09:56 SW 15 G 20 10.00 Light Rain BKN010 BKN025 OVC035 46.9 46 46.9 43 97% 41 29.55 1000.5 0.02 0.08
14 08:56 SW 13 G 23 10.00 Light Rain BKN006 OVC015 46.9 46 97% 42 29.55 1000.4 0.02
14 07:56 SW 12 4.00 Light Rain Fog/Mist OVC008 46.9 46 97% 42 29.56 1000.6 0.02
14 06:56 S 12 6.00 Light Rain Fog/Mist OVC004 45 44.1 97% 40 29.57 1001.1 0.02 0.02
14 05:56 S 9 4.00 Light Rain Fog/Mist FEW014 BKN019 OVC027 44.1 43 96% 40 29.6 1001.9
14 04:56 S 7 10.00 Overcast BKN028 OVC034 44.1 41 89% 41 29.61 1002.3
14 03:56 SW 7 10.00 Overcast BKN025 OVC030 45 39.9 46 44.1 83% 42 29.62 1002.7
14 02:56 SW 8 10.00 Overcast FEW021 OVC032 44.1 39.9 85% 40 29.62 1002.6
14 01:56 W 13 G 21 10.00 Overcast FEW018 SCT024 OVC039 45 41 86% 39 29.62 1002.7
14 00:56 W 10 10.00 Overcast FEW016 OVC033 46 42.1 86% 42 29.61 1002.5
13 23:56 W 12 10.00 Overcast FEW017 SCT028 OVC035 45 39.9 83% 40 29.61 0.0
13 22:56 W 15 G 20 10.00 Mostly Cloudy BKN019 45 39.9 83% 39 29.6 0.0
13 21:56 W 15 G 23 10.00 Overcast BKN018 BKN027 OVC031 46 39.9 50 46 79% 40 29.59 0.0
13 20:56 SW 13 G 20 10.00 Overcast BKN018 OVC030 46 41 83% 41 29.6 0.0
13 19:56 W 14 G 22 10.00 Mostly Cloudy BKN020 BKN024 48 41 77% 43 29.59 0.0
13 18:56 W 17 G 22 10.00 Mostly Cloudy BKN018 BKN025 48 41 77% 42 29.59 0.0
13 17:56 W 16 G 21 10.00 Overcast BKN018 BKN026 OVC055 48 41 77% 42 29.58 0.0
13 16:56 W 15 10.00 Overcast OVC014 48 43 83% 43 29.57 0.0
13 15:56 W 13 G 21 4.00 Fog/Mist OVC008 46.9 45 93% 42 29.57 0.0
13 14:56 W 10 10.00 Overcast BKN010 OVC023 48 45 89% 44 29.56 0.0
13 13:56 W 13 G 17 5.00 Light Rain Fog/Mist OVC006 46.9 46 97% 42 29.56 0.0 0.02
13 12:56 W 7 7.00 Light Rain OVC006 48 46 93% 45 29.56 0.0
13 08:56 Calm 10.00 Light Rain OVC006 46 45 96% 29.59 1001.8
13 07:56 Calm 10.00 Overcast OVC006 46 44.1 93% 29.6 1001.9
13 06:56 W 3 10.00 Overcast OVC006 45 44.1 97% 29.62 1002.8
13 05:56 W 3 10.00 Overcast BKN006 OVC032 45 44.1 97% 29.62 1002.9
13 04:56 Calm 10.00 Overcast OVC006 46 45 96% 29.63 1003.2
13 03:56 W 5 3.00 Light Rain Fog/Mist OVC006 45 44.1 48 45 97% 43 29.65 1003.9
13 02:56 W 3 10.00 Overcast OVC004 46 45 96% 29.66 1004.1
13 01:56 SW 5 10.00 Overcast OVC006 46 45 96% 44 29.67 1004.5
13 00:56 SW 6 10.00 Overcast OVC006 46 45 96% 44 29.67 1004.6
12 23:56 SW 6 10.00 Overcast OVC004 46 45 96% 44 29.67 1004.5
12 22:56 SW 7 8.00 Overcast OVC006 46.9 46 97% 44 29.67 1004.5
12 21:56 W 8 8.00 Overcast OVC006 48 46.9 54 48 96% 45 29.66 1004.3 0.05
12 20:56 SW 7 1.75 Fog/Mist OVC004 48.9 48 97% 46 29.65 1003.8
12 19:56 SW 9 1.50 Light Rain Fog/Mist OVC004 51.1 50 96% 29.64 1003.5
12 18:56 W 9 2.50 Light Rain Fog/Mist OVC004 53.1 52 96% 29.63 1003.1 0.03 0.05
12 17:56 S 12 1.50 Light Rain Fog/Mist BKN009 OVC014 53.1 52 96% 29.62 1002.9 0.01
12 16:56 S 15 7.00 Overcast BKN009 OVC014 54 52 93% 29.62 1002.6 0.01
12 15:56 SE 17 G 24 9.00 Light Rain SCT009 SCT032 OVC042 53.1 52 53.1 50 96% 29.6 1002.3 0.03 0.1
12 14:56 SE 23 G 30 4.00 Light Rain Fog/Mist and Breezy BKN027 OVC032 53.1 50 89% 29.59 1001.9 0.01
12 13:56 SE 24 G 29 10.00 Light Rain and Breezy OVC033 53.1 50 89% 29.57 1001.2 0.04
12 12:56 SE 17 10.00 Light Rain OVC018 52 50 93% 29.57 1001.2 0.01 0.02
12 11:56 SE 21 G 29 10.00 Overcast and Breezy OVC020 52 48 86% 29.57 1001.1
12 10:56 SE 21 G 31 10.00 Overcast and Breezy OVC020 51.1 48 89% 29.57 1000.9 0.01
12 09:56 SE 24 G 31 10.00 Light Rain and Breezy OVC022 50 48 50 48.9 93% 43 29.58 1001.3 0.01 0.06
12 08:56 SE 21 G 28 5.00 Light Rain Fog/Mist and Breezy SCT007 BKN017 OVC060 48.9 48 97% 43 29.6 1002.0 0.02
12 07:56 SE 17 G 25 10.00 Light Rain BKN013 BKN027 OVC060 50 48 93% 45 29.62 1002.7 0.01
12 06:56 SE 22 G 31 10.00 Light Rain and Breezy OVC065 50 48 93% 44 29.62 1002.8 0.02
12 05:56 SE 23 G 33 10.00 Light Rain and Breezy OVC060 50 48 93% 44 29.64 1003.5 0.01
12 04:56 SE 25 G 36 10.00 Light Rain and Breezy OVC065 48.9 48 97% 42 29.66 1004.0 0.01
12 03:56 SE 15 10.00 Light Rain FEW039 OVC070 48.9 48 54 48.9 97% 44 29.7 1005.4 0.01 0.04
Date Time (akdt) Wind (mph) Vis. (mi.) Weather Sky Cond. Air Dwpt Max. Min. Relative Humidity Wind Chill (°F) Heat Index (°F) altimeter (in) sea level (mb) 1 hr 3 hr 6 hr
6 hour
Temperature (ºF) Pressure Precipitation (in)